Voltar ao catálogo

SL-16 R/B

AtivoSSO
NORAD 25861·ROCKET BODY·🇷🇺 Russia

Lançado Jul 17, 1999 de Baikonur Cosmodrome

Loading…

Próximas Passagens (próximas 24 horas)

TLE

AtualizadoSource: Space-Track

Época: Sep 14, 2026, 18:27 UTC

1 25861U 99039B   26257.76932571  .00000332  00000-0  48702-4 0  9997
2 25861  97.9744 316.3353 0014875   9.1359 351.0122 14.81919384464860

Acompanhe SL-16 R/B em tempo real com AllMySat

Download on the App Store